F4DOU-5 Weather Reports


time (UTC)temp
C
wind
direction
speed
KPH
gust
KPH
rain 1hr
cm
rain 24hr
cm
rain mn
cm
humidity
%
barometer
mb
20260510043007 13 346 3.2 12.9 0.03 0.20 0.20 95 1011.2
20260510042006 13 343 4.8 12.9 0.03 0.20 0.20 95 1011.6
20260510041006 13 335 3.2 8.0 0.03 0.20 0.20 95 1011.8
20260510040006 13 329 3.2 9.7 0.03 0.20 0.20 95 1011.8
20260510035007 13 341 3.2 9.7 0.03 0.20 0.20 95 1011.7
20260510033006 13 6 3.2 8.0 0.00 0.18 0.18 95 1012.1
20260510032006 13 353 1.6 4.8 0.00 0.18 0.18 95 1012.3
20260510031007 13 17 3.2 4.8 0.00 0.18 0.18 94 1012.4
20260510030006 13 12 1.6 8.0 0.00 0.18 0.18 94 1012.5
20260510025006 13 20 4.8 11.3 0.00 0.18 0.18 94 1012.7
20260510024006 13 38 3.2 11.3 0.00 0.18 0.18 94 1012.7
20260510023006 13 24 1.6 4.8 0.00 0.18 0.18 94 1012.7
20260510022006 13 20 3.2 4.8 0.00 0.18 0.18 94 1012.7
20260510021006 13 0 0.0 0.0 0.00 0.18 0.18 94 1012.8
20260510020006 13 0 0.0 4.8 0.00 0.18 0.18 93 1012.7
20260510015006 13 5 1.6 4.8 0.00 0.18 0.18 94 1012.6
20260510014006 13 5 0.0 3.2 0.03 0.18 0.18 93 1012.6
20260510013006 14 5 1.6 4.8 0.05 0.18 0.18 93 1012.5
20260510011006 14 58 1.6 3.2 0.05 0.18 0.18 92 1012.9
20260510010006 14 5 0.0 4.8 0.10 0.18 0.18 92 1012.9
20260510005006 14 5 1.6 3.2 0.13 0.18 0.18 92 1012.8
20260510004006 14 325 0.0 1.6 0.15 0.15 0.15 91 1012.9
20260510003006 15 325 0.0 3.2 0.15 0.15 0.15 91 1013.2
20260510002006 15 44 0.0 4.8 0.15 0.15 0.15 90 1013.3
20260510001006 15 58 1.6 4.8 0.13 0.13 0.13 90 1013.5
20260510000006 15 159 0.0 4.8 0.08 0.08 0.08 89 1013.5
20260509235005 15 186 1.6 9.7 0.05 0.05 0.05 88 1013.1
20260509234006 15 215 3.2 9.7 0.00 0.00 0.00 86 1013.1
20260509233006 16 225 1.6 11.3 0.00 0.00 0.00 85 1013.0
20260509232005 16 234 1.6 12.9 0.00 0.00 0.00 84 1012.9
20260509231005 16 255 1.6 8.0 0.00 0.00 0.00 82 1012.9
20260509230005 16 194 1.6 4.8 0.00 0.00 0.00 81 1012.8
20260509225005 16 209 1.6 4.8 0.00 0.00 0.00 80 1012.9
20260509224005 16 210 3.2 11.3 0.00 0.00 0.00 80 1012.7
20260509223005 16 250 1.6 4.8 0.00 0.00 0.00 80 1012.6
20260509222006 16 237 1.6 4.8 0.00 0.00 0.00 80 1012.6
20260509220006 16 268 4.8 9.7 0.00 0.00 0.00 81 1012.5
20260509215005 16 271 0.0 0.0 0.00 0.00 0.00 82 1012.7
20260509214006 16 271 0.0 0.0 0.00 0.00 0.00 82 1012.8
20260509212006 16 271 0.0 0.0 0.00 0.00 0.00 81 1012.7
20260509211005 16 273 0.0 0.0 0.00 0.00 0.00 81 1012.8
20260509210006 16 213 0.0 0.0 0.00 0.00 0.00 81 1012.9
20260509205005 16 247 0.0 0.0 0.00 0.00 0.00 77 1012.8
20260509204006 16 250 0.0 0.0 0.00 0.00 0.00 77 1012.8
20260509203005 16 250 0.0 0.0 0.00 0.00 0.00 76 1012.9
20260509202006 16 250 0.0 0.0 0.00 0.00 0.00 75 1012.8
20260509201006 17 250 0.0 0.0 0.00 0.00 0.00 75 1012.8
20260509200006 17 212 0.0 0.0 0.00 0.00 0.00 74 1012.9
20260509195006 17 212 0.0 0.0 0.00 0.00 0.00 74 1012.8
20260509194006 17 212 0.0 3.2 0.00 0.00 0.00 74 1012.8
20260509193006 17 198 1.6 3.2 0.00 0.00 0.00 74 1012.7
20260509192006 17 198 0.0 3.2 0.00 0.00 0.00 71 1012.6
20260509190006 18 198 0.0 3.2 0.00 0.00 0.00 73 1012.4
20260509185006 18 198 0.0 3.2 0.00 0.00 0.00 72 1012.4
20260509184006 18 197 0.0 1.6 0.00 0.00 0.00 68 1012.3
20260509183006 18 196 1.6 3.2 0.00 0.00 0.00 67 1012.3
20260509181006 18 197 0.0 4.8 0.00 0.00 0.00 66 1012.1
20260509180006 19 211 3.2 4.8 0.00 0.00 0.00 65 1012.0
20260509175006 19 184 3.2 8.0 0.00 0.00 0.00 65 1012.0
20260509174007 20 183 3.2 9.7 0.00 0.00 0.00 63 1011.9
20260509173006 20 213 3.2 9.7 0.00 0.00 0.00 61 1011.9
20260509172006 20 216 3.2 11.3 0.00 0.00 0.00 59 1011.7
20260509171006 20 200 4.8 9.7 0.00 0.00 0.00 60 1011.8
20260509170007 20 214 4.8 8.0 0.00 0.00 0.00 59 1011.7
20260509165006 20 215 3.2 11.3 0.00 0.00 0.00 59 1011.8
20260509164006 20 225 4.8 12.9 0.00 0.00 0.00 58 1012.0
20260509163006 20 217 4.8 8.0 0.00 0.00 0.00 58 1012.1
20260509162005 20 210 3.2 11.3 0.00 0.00 0.00 58 1012.2
20260509161005 20 217 4.8 11.3 0.00 0.00 0.00 59 1012.2
20260509160006 21 222 4.8 14.5 0.00 0.00 0.00 59 1012.4
20260509155005 21 210 8.0 16.1 0.00 0.00 0.00 59 1012.4
20260509154004 21 205 6.4 19.3 0.00 0.00 0.00 58 1012.4
20260509152006 21 209 9.7 16.1 0.00 0.00 0.00 55 1012.5
20260509151005 22 198 6.4 19.3 0.00 0.00 0.00 55 1012.6
20260509150005 22 195 9.7 19.3 0.00 0.00 0.00 53 1012.6
20260509145006 22 226 8.0 19.3 0.00 0.00 0.00 51 1012.9
20260509144005 23 207 8.0 19.3 0.00 0.00 0.00 47 1013.0
20260509143005 23 220 9.7 19.3 0.00 0.00 0.00 48 1012.9
20260509142005 23 199 9.7 24.1 0.00 0.00 0.00 45 1013.0
20260509140006 23 191 11.3 22.5 0.00 0.00 0.00 45 1013.0
20260509135006 23 194 6.4 19.3 0.00 0.00 0.00 45 1013.2
20260509134005 23 187 12.9 25.7 0.00 0.00 0.00 46 1013.3
20260509133005 23 187 9.7 19.3 0.00 0.00 0.00 47 1013.3
20260509132005 23 195 12.9 22.5 0.00 0.00 0.00 46 1013.5
20260509131005 23 209 11.3 22.5 0.00 0.00 0.00 45 1013.5
20260509130005 23 200 4.8 19.3 0.00 0.00 0.00 44 1013.5
20260509125005 24 187 9.7 19.3 0.00 0.00 0.00 43 1013.5
20260509123005 23 213 9.7 19.3 0.00 0.00 0.00 44 1014.0
20260509122005 23 203 11.3 19.3 0.00 0.00 0.00 47 1014.1
20260509120005 22 240 8.0 24.1 0.00 0.00 0.00 48 1014.3
20260509114005 22 169 14.5 22.5 0.00 0.00 0.00 49 1014.6
20260509112005 22 161 8.0 19.3 0.00 0.00 0.00 47 1014.8
20260509111005 22 156 9.7 19.3 0.00 0.00 0.00 47 1014.8
20260509110005 22 149 8.0 19.3 0.00 0.00 0.00 48 1014.9
20260509105006 22 117 9.7 19.3 0.00 0.00 0.00 48 1014.7
20260509104005 22 129 4.8 11.3 0.00 0.00 0.00 47 1014.6
20260509103005 21 183 3.2 12.9 0.00 0.00 0.00 47 1015.1
20260509102005 21 122 8.0 12.9 0.00 0.00 0.00 47 1015.1
20260509101004 21 79 1.6 8.0 0.00 0.00 0.00 49 1015.1
20260509100006 21 44 4.8 11.3 0.00 0.00 0.00 51 1015.2
20260509093006 21 55 3.2 11.3 0.00 0.00 0.00 54 1015.5
20260509092005 21 110 3.2 8.0 0.00 0.00 0.00 56 1015.8
20260509091005 20 111 3.2 4.8 0.00 0.00 0.00 63 1015.8
20260509090005 20 122 1.6 4.8 0.00 0.00 0.00 62 1015.9
20260509084005 19 62 1.6 8.0 0.00 0.00 0.00 67 1016.1
20260509083005 18 128 3.2 8.0 0.00 0.00 0.00 68 1016.2
20260509082005 18 145 1.6 8.0 0.00 0.00 0.00 68 1016.2
20260509081005 18 81 1.6 8.0 0.00 0.00 0.00 73 1016.2
20260509080005 18 83 1.6 4.8 0.00 0.00 0.00 76 1016.3
20260509075005 17 85 1.6 4.8 0.00 0.00 0.00 81 1016.4
20260509073005 16 85 1.6 4.8 0.00 0.00 0.00 84 1016.4
20260509072006 15 24 3.2 9.7 0.00 0.00 0.00 86 1016.4
20260509071005 15 78 1.6 4.8 0.00 0.00 0.00 88 1016.4
20260509070005 14 87 3.2 4.8 0.00 0.00 0.00 88 1016.5
20260509063005 13 56 0.0 0.0 0.00 0.00 0.00 91 1016.7
20260509062006 12 333 0.0 0.0 0.00 0.00 0.00 92 1016.6
20260509061005 12 333 0.0 0.0 0.00 0.00 0.00 92 1016.6
20260509060007 11 304 0.0 0.0 0.00 0.00 0.00 93 1016.6
20260509054006 11 304 0.0 0.0 0.00 0.00 0.00 93 1016.5
20260509053005 10 304 0.0 0.0 0.00 0.00 0.00 93 1016.4
20260509052007 10 304 0.0 0.0 0.00 0.00 0.00 94 1016.4
20260509051005 10 304 0.0 0.0 0.00 0.00 0.00 94 1016.4
20260509050005 9 304 0.0 0.0 0.00 0.00 0.00 94 1016.4
20260509045005 9 304 0.0 3.2 0.00 0.00 0.00 94 1016.3